Weather History for Shaw AFB, SC

Change the Weather History Date:

Monday, September 16, 2013

  Actual Average Record
Temperature  
Mean Temperature 78 °F -  
Max Temperature 88 °F 81 °F 96 °F (2005)
Min Temperature 69 °F 62 °F 51 °F (2001)
Cooling Degree Days 13    
Growing Degree Days 28 (Base 50)    
Moisture  
Dew Point 71 °F    
Average Humidity 86    
Maximum Humidity 100    
Minimum Humidity 53    
Precipitation  
Precipitation 0.63 in - - ()
Sea Level Pressure  
Sea Level Pressure 30.09 in    
Wind  
Wind Speed 4 mph (South)    
Max Wind Speed 15 mph    
Max Gust Speed 20 mph    
Visibility 9 miles    
Events Rain    
Averages and records for this station are not official NWS values.
T = Trace of Precipitation, MM = Missing Value Source: NWS Daily Summary

Daily Weather History Graph

Daily Weather History Graph

Search for Another Location

Airport:

Trip Planner

Search our weather history database for the weather conditions in past years. The results will help you decide how hot, cold, wet, or windy it might be!

Date:

Astronomy

Sep. 16, 2013 Rise Set
Actual Time 7:05 AM EDT 7:26 PM EDT
Civil Twilight 6:40 AM EDT 7:51 PM EDT
Nautical Twilight 6:11 AM EDT 8:20 PM EDT
Astronomical Twilight 5:41 AM EDT 8:50 PM EDT
Moon 5:29 PM EDT (9/16) 3:57 AM EDT (9/16)
Length of Visible Light 13h 10m
Length of Day
12h 20m
Waxing Gibbous, 90% of the Moon is Illuminated
Sep 16
Waxing Gibbous
Sep 19
Full
Sep 26
Last Quarter
Oct 4
New
Oct 11
First Quarter

Hourly Weather History & Observations

Time (EDT) Temp. Heat Index Dew Point Humidity Pressure Visibility Wind Dir Wind Speed Gust Speed Precip Events Conditions
12:58 AM 72.5 °F - 70.7 °F 94% 30.12 in 10.0 mi ESE 3.5 mph - N/A   Partly Cloudy
1:48 AM 71.6 °F - 69.8 °F 94% 30.11 in 10.0 mi Calm Calm - N/A   Clear
1:53 AM 71.6 °F - 69.8 °F 94% 30.11 in 10.0 mi Calm Calm - N/A   Clear
1:58 AM 71.1 °F - 69.6 °F 95% 30.12 in 10.0 mi Calm Calm - N/A   Partly Cloudy
2:17 AM 71.6 °F - 69.8 °F 94% 30.11 in 10.0 mi ESE 1.2 mph - N/A   Scattered Clouds
2:22 AM 71.6 °F - 69.8 °F 94% 30.11 in 7.0 mi ESE 2.3 mph - N/A   Mostly Cloudy
2:37 AM 71.6 °F - 69.8 °F 94% 30.11 in 10.0 mi SE 2.3 mph - N/A   Overcast
2:58 AM 72.3 °F - 70.9 °F 95% 30.11 in 10.0 mi Calm Calm - N/A   Overcast
3:13 AM 71.6 °F - 71.6 °F 100% 30.11 in 10.0 mi Calm Calm - N/A   Overcast
3:23 AM 71.6 °F - 71.6 °F 100% 30.11 in 10.0 mi Calm Calm - N/A   Mostly Cloudy
3:51 AM 71.6 °F - 71.6 °F 100% 30.10 in 10.0 mi NNE 2.3 mph - N/A   Mostly Cloudy
3:58 AM 72.3 °F - 70.9 °F 95% 30.10 in 10.0 mi NNE 3.5 mph - N/A   Mostly Cloudy
4:03 AM 71.6 °F - 71.6 °F 100% 30.10 in 10.0 mi NNW 3.5 mph - N/A   Mostly Cloudy
4:58 AM 73.0 °F - 71.2 °F 94% 30.10 in 10.0 mi North 1.2 mph - N/A   Overcast
5:11 AM 73.4 °F - 71.6 °F 94% 30.10 in 9.0 mi SSE 5.8 mph - N/A Rain Light Rain
5:16 AM 73.4 °F - 71.6 °F 94% 30.11 in 4.0 mi South 5.8 mph - N/A Rain Light Rain
5:21 AM 73.4 °F - 71.6 °F 94% 30.10 in 2.5 mi WSW 11.5 mph - N/A Rain Heavy Rain
5:26 AM 71.6 °F - 69.8 °F 94% 30.11 in 2.0 mi SSW 13.8 mph - N/A Rain Heavy Rain
5:31 AM 71.6 °F - 68.0 °F 88% 30.11 in 1.2 mi SSW 15.0 mph - N/A Rain Heavy Rain
5:36 AM 69.8 °F - 68.0 °F 94% 30.11 in 1.2 mi South 12.7 mph 19.6 mph N/A Rain Heavy Rain
5:37 AM 69.8 °F - 68.0 °F 94% 30.11 in 1.2 mi South 12.7 mph - N/A Rain Heavy Rain
5:42 AM 69.8 °F - 68.0 °F 94% 30.10 in 3.0 mi South 10.4 mph - N/A Rain Light Rain
5:53 AM 71.6 °F - 68.0 °F 88% 30.10 in 10.0 mi South 8.1 mph - N/A   Overcast
5:58 AM 70.9 °F - 68.7 °F 93% 30.11 in 10.0 mi South 6.9 mph - 0.63 in   Overcast
6:13 AM 71.6 °F - 69.8 °F 94% 30.10 in 10.0 mi SSW 4.6 mph - N/A   Light Drizzle
6:41 AM 71.6 °F - 69.8 °F 94% 30.10 in 10.0 mi South 4.6 mph - N/A   Mostly Cloudy
6:48 AM 71.6 °F - 69.8 °F 94% 30.10 in 10.0 mi South 4.6 mph - N/A   Light Drizzle
6:58 AM 70.9 °F - 69.1 °F 94% 30.11 in 10.0 mi South 4.6 mph - 0.00 in Rain Light Rain
7:02 AM 71.6 °F - 68.0 °F 88% 30.11 in 10.0 mi South 4.6 mph - N/A   Mostly Cloudy
7:58 AM 71.1 °F - 69.3 °F 94% 30.11 in 10.0 mi SW 1.2 mph - 0.00 in   Scattered Clouds
8:58 AM 73.9 °F - 70.2 °F 88% 30.12 in 10.0 mi SSW 3.5 mph - N/A   Partly Cloudy
9:58 AM 75.6 °F - 71.1 °F 86% 30.12 in 10.0 mi West 2.3 mph - N/A   Mostly Cloudy
10:58 AM 78.8 °F - 72.1 °F 80% 30.12 in 10.0 mi WSW 5.8 mph - N/A   Scattered Clouds
11:58 AM 81.0 °F 84.9 °F 71.2 °F 72% 30.12 in 10.0 mi West 4.6 mph - N/A   Partly Cloudy
12:58 PM 83.7 °F 89.2 °F 72.0 °F 68% 30.09 in 10.0 mi Calm Calm - N/A   Clear
1:58 PM 86.4 °F 92.2 °F 71.6 °F 61% 30.06 in 10.0 mi Variable 4.6 mph - N/A   Partly Cloudy
2:30 PM 86.0 °F 91.8 °F 71.6 °F 62% 30.06 in 10.0 mi Calm Calm - N/A Rain Light Rain
2:40 PM 86.0 °F 91.8 °F 71.6 °F 62% 30.05 in 10.0 mi Variable 1.2 mph - N/A   Mostly Cloudy
2:58 PM 86.5 °F 92.5 °F 71.8 °F 61% 30.04 in 10.0 mi Variable 2.3 mph - 0.00 in   Mostly Cloudy
3:58 PM 87.4 °F 91.2 °F 68.5 °F 53% 30.02 in 10.0 mi SW 4.6 mph - N/A   Scattered Clouds
4:58 PM 86.7 °F 90.3 °F 68.0 °F 54% 30.02 in 10.0 mi NNW 5.8 mph - N/A   Mostly Cloudy
5:58 PM 87.8 °F 94.7 °F 72.3 °F 60% 30.02 in 10.0 mi South 6.9 mph - N/A   Mostly Cloudy
6:58 PM 83.1 °F 89.2 °F 73.2 °F 72% 30.04 in 10.0 mi ESE 5.8 mph - N/A   Mostly Cloudy
7:47 PM 80.6 °F 85.4 °F 73.4 °F 79% 30.05 in 10.0 mi SE 4.6 mph - N/A Rain Light Rain
7:51 PM 80.6 °F 85.4 °F 73.4 °F 79% 30.05 in 10.0 mi SE 4.6 mph - N/A   Partly Cloudy
7:53 PM 80.6 °F 85.4 °F 73.4 °F 79% 30.06 in 10.0 mi SE 4.6 mph - N/A Rain Light Rain
7:58 PM 79.9 °F - 72.7 °F 79% 30.06 in 10.0 mi ESE 4.6 mph - 0.00 in Rain Light Rain
8:08 PM 78.8 °F - 75.2 °F 89% 30.06 in 10.0 mi SE 4.6 mph - N/A   Clear
8:58 PM 77.4 °F - 73.6 °F 88% 30.08 in 10.0 mi South 3.5 mph - 0.00 in   Clear
9:58 PM 75.4 °F - 72.9 °F 92% 30.09 in 10.0 mi Calm Calm - N/A   Scattered Clouds
10:58 PM 74.3 °F - 72.5 °F 94% 30.09 in 10.0 mi ENE 4.6 mph - N/A   Scattered Clouds
11:58 PM 74.3 °F - 72.1 °F 93% 30.10 in 10.0 mi Calm Calm - N/A   Clear